User: anonymous   Login
Location: Unspecified
(0.0000°N, 0.0000°E)
Time: 18:43:36
(UTC+00:00)
Language:

A-11 Canister half - Orbit

View from above orbital plane
View from above orbital plane
View from above satellite
View from above satellite

Ground track
Ground track

The orbit data is extracted from the following two-line orbital elements,

1 00051U 60009C   18175.08561635 -.00000002  00000-0  79928-3 0  9998
2 00051  47.2141  68.4222 0104087 168.6317 191.6854 12.18266190575774
Epoch (UTC): 24 June 2018 02:03:17
Eccentricity: 0.0104087
inclination: 47.2141°
perigee height: 1517 km
apogee height: 1683 km
right ascension of ascending node: 68.4222°
argument of perigee: 168.6317°
revolutions per day: 12.18266190
mean anomaly at epoch: 191.6854°
orbit number at epoch: 57577

The dashed part of the orbit path shows where the satellite is in the earth's shadow,  

DLR